TimeEST,TemperatureF,Dew PointF,Humidity,Sea Level PressureIn,VisibilityMPH,Wind Direction,Wind SpeedMPH,Gust SpeedMPH,PrecipitationIn,Events,Conditions,WindDirDegrees,DateUTC
12:54 AM,3.0,-0.9,84,30.15,10.0,South,6.9,-,N/A,,Clear,170,2014-03-07 05:54:00
1:54 AM,9.0,1.9,73,30.11,10.0,South,5.8,-,N/A,,Clear,170,2014-03-07 06:54:00
2:54 AM,12.0,3.9,70,30.11,10.0,West,3.5,-,N/A,,Clear,280,2014-03-07 07:54:00
3:54 AM,3.0,-0.9,84,30.07,10.0,SSE,3.5,-,N/A,,Clear,150,2014-03-07 08:54:00
4:54 AM,3.0,-2.0,80,30.08,10.0,SSE,3.5,-,N/A,,Clear,160,2014-03-07 09:54:00
5:54 AM,1.0,-2.9,83,30.07,10.0,South,4.6,-,N/A,,Clear,170,2014-03-07 10:54:00
6:54 AM,-0.0,-4.0,83,30.06,10.0,Calm,Calm,-,N/A,,Clear,0,2014-03-07 11:54:00
7:54 AM,1.9,-4.0,76,30.04,10.0,Calm,Calm,-,N/A,,Clear,0,2014-03-07 12:54:00
8:54 AM,14.0,7.0,74,30.04,10.0,South,4.6,-,N/A,,Clear,170,2014-03-07 13:54:00
9:54 AM,24.1,12.0,60,29.99,10.0,South,9.2,-,N/A,,Clear,180,2014-03-07 14:54:00
10:54 AM,28.9,12.0,49,29.96,10.0,South,10.4,-,N/A,,Clear,190,2014-03-07 15:54:00
11:54 AM,34.0,14.0,44,29.94,10.0,South,10.4,-,N/A,,Clear,190,2014-03-07 16:54:00
12:54 PM,37.9,15.1,39,29.90,10.0,South,9.2,-,N/A,,Partly Cloudy,180,2014-03-07 17:54:00
1:54 PM,39.9,16.0,38,29.87,10.0,South,9.2,-,N/A,,Clear,170,2014-03-07 18:54:00
2:54 PM,43.0,18.0,37,29.83,10.0,South,6.9,-,N/A,,Clear,180,2014-03-07 19:54:00
3:54 PM,41.0,23.0,49,29.82,10.0,South,8.1,-,N/A,,Overcast,180,2014-03-07 20:54:00
4:54 PM,44.1,21.9,42,29.82,10.0,SSW,6.9,-,N/A,,Overcast,210,2014-03-07 21:54:00
5:54 PM,42.1,21.9,45,29.82,10.0,SSW,6.9,-,N/A,,Overcast,200,2014-03-07 22:54:00
6:50 PM,33.8,24.8,70,29.83,10.0,North,12.7,-,N/A,,Overcast,350,2014-03-07 23:50:00
6:54 PM,34.0,25.0,70,29.87,10.0,NNW,11.5,-,N/A,,Overcast,340,2014-03-07 23:54:00
7:54 PM,30.9,25.0,79,29.90,9.0,North,11.5,-,N/A,,Overcast,360,2014-03-08 00:54:00
8:54 PM,30.9,26.1,82,29.91,7.0,NNW,5.8,-,N/A,,Overcast,330,2014-03-08 01:54:00
9:45 PM,30.9,26.1,82,29.88,7.0,NNW,4.6,-,N/A,,Overcast,330,2014-03-08 02:45:00
9:54 PM,30.9,26.1,82,29.92,7.0,NNW,5.8,-,N/A,,Overcast,330,2014-03-08 02:54:00
10:33 PM,30.9,26.1,82,29.90,6.0,NW,10.4,-,N/A,,Haze,320,2014-03-08 03:33:00
10:54 PM,30.0,25.0,82,29.94,6.0,NW,17.3,-,0.00,,Overcast,320,2014-03-08 03:54:00
11:47 PM,28.9,23.0,78,29.92,8.0,NW,15.0,-,0.00,,Overcast,320,2014-03-08 04:47:00
11:54 PM,28.9,23.0,78,29.95,8.0,NNW,12.7,-,0.00,,Overcast,330,2014-03-08 04:54:00